Regional Weather Roundup
Issued by NWS

Home | Current Version | Previous Version | Graphics & Text | Print | Product List | Glossary On
Versions: 1 2 3 4 5 6 7 8 9 10 11 12 13 14 15 16 17 18 19 20 21 22 23 24 25 26 27 28 29 30 31 32 33 34 35 36 37 38 39 40 41 42 43 44 45 46 47 48 49 50
821
ASUS43 KIND 290059
RWRIN

WEATHER ROUNDUP FOR INDIANA
NATIONAL WEATHER SERVICE INDIANAPOLIS IN
900 PM EDT THU APR 28 2016

NOTE: "FAIR" INDICATES FEW OR NO CLOUDS BELOW 12,000 FEET WITH NO
SIGNIFICANT WEATHER AND/OR OBSTRUCTIONS TO VISIBILITY.

* - STATION DOES NOT REPORT WEATHER SUCH AS PRECIPITATION OR FOG.

+ - STATION NOT QUALITY CONTROLLED BY THE NATIONAL WEATHER SERVICE.
    USE DATA WITH CAUTION...ESPECIALLY DEWPOINT AND RELATIVE
    HUMIDITY OBSERVATIONS.

INZ001>003-010>013-019-020-290200-
NORTHWEST INDIANA

CITY           SKY/WX    TMP DP  RH WIND       PRES   REMARKS
GARY /AIRPORT/ CLOUDY    46  46 100 N7        29.97R
RENSSELAER +   CLOUDY    55  52  88 N3        29.93R

$$

LMZ046-743>745-290200-
SOUTHERN LAKE MICHIGAN

STATION/POSITION TIME  TEMP    WIND        PRES    WAVE
                       AIR SEA DIR/SP/G            HT
                 (UTC) (F)     (DEG/KT/KT) (MB)    (FT)
BURNS HARBOR     0011   46      20/  4/  9 1014.6R
MICHIGAN CITY    0000   46      30/  7/  7   N/A

$$

INZ004-005-014>016-021>024-290200-
NORTH CENTRAL INDIANA

CITY           SKY/WX    TMP DP  RH WIND       PRES   REMARKS
ELKHART        CLOUDY    50  48  93 E6        29.96R
GOSHEN         CLOUDY    50  44  80 E9        29.96R
SOUTH BEND     CLOUDY    51  45  79 E7        29.96R

$$

INZ006>009-017-018-025>027-290200-
NORTHEAST INDIANA

CITY           SKY/WX    TMP DP  RH WIND       PRES   REMARKS
ANGOLA *+      CLOUDY    46  37  71 E9        29.98R
FORT WAYNE     CLOUDY    50  45  83 E8        29.97R

$$

INZ028-029-035-036-043>045-051>053-290200-
WEST CENTRAL INDIANA

CITY           SKY/WX    TMP DP  RH WIND       PRES   REMARKS
CRAWFORDSVL +  MOCLDY    58  57  95 CALM      29.91S
GREENCASTLE +  CLOUDY    64  54  68 W10G17    29.92R
LAFAYETTE      CLOUDY    58  53  84 N5        29.92R
TERRE HAUTE    CLEAR     64  50  60 NW8       29.92R

$$

INZ030>032-037>040-046>048-054>057-064-065-290200-
CENTRAL INDIANA

CITY           SKY/WX    TMP DP  RH WIND       PRES   REMARKS
COLUMBUS       CLEAR     64  52  63 W6        29.91
INDIANAPOLIS   PTCLDY    61  54  77 NE10      29.90R
-EAGLE CREEK   MOCLDY    60  55  83 NE7       29.91R
KOKOMO *+      CLOUDY    52  46  82 E6        29.93R
SHELBYVILLE    PTCLDY    61  56  83 NE6       29.91R

$$

INZ033-034-041-042-049-050-058-059-290200-
EAST CENTRAL INDIANA

CITY           SKY/WX    TMP DP  RH WIND       PRES   REMARKS
MUNCIE         MOCLDY    53  49  86 NE6       29.93R

$$

INZ060-061-067>069-081>083-085>088-290200-
SOUTHWEST INDIANA

CITY           SKY/WX    TMP DP  RH WIND       PRES   REMARKS
EVANSVILLE     CLEAR     70  48  45 W3        29.93R
HUNTINGBURG *+ CLEAR     64  54  68 W7        29.92R

$$

INZ062-063-066-070>080-084-089>092-290200-
SOUTH CENTRAL AND SOUTHEAST INDIANA

CITY           SKY/WX    TMP DP  RH WIND       PRES   REMARKS
BLOOMINGTON    PTCLDY    66  50  56 W6        29.91R
MADISON *+     CLEAR     66  46  48 CALM      29.93R
SEYMOUR +      CLEAR     64  52  63 CALM      29.91R

$$





USA.gov is the U.S. government's official web portal to all federal, state and local government web resources and services.